<?xml version="1.0" encoding="UTF-8" standalone="no" ?><gpx xmlns="http://www.topografix.com/GPX/1/1" xmlns:gpxx="http://www.garmin.com/xmlschemas/GpxExtensions/v3" xmlns:wptx1="http://www.garmin.com/xmlschemas/WaypointExtension/v1" xmlns:gpxtpx="http://www.garmin.com/xmlschemas/TrackPointExtension/v1" creator="GuideVTT.com" version="1.1" xmlns:xsi="http://www.w3.org/2001/XMLSchema-instance" xsi:schemaLocation="http://www.topografix.com/GPX/1/1 http://www.topografix.com/GPX/1/1/gpx.xsd http://www.garmin.com/xmlschemas/GpxExtensions/v3 http://www8.garmin.com/xmlschemas/GpxExtensionsv3.xsd http://www.garmin.com/xmlschemas/WaypointExtension/v1 http://www8.garmin.com/xmlschemas/WaypointExtensionv1.xsd http://www.garmin.com/xmlschemas/TrackPointExtension/v1 http://www.garmin.com/xmlschemas/TrackPointExtensionv1.xsd">
<metadata><link href="http://www.garmin.com"><text>Garmin International</text></link><time>2013-06-22T15:13:50Z</time></metadata>
<trk><name>la_merine.gpx</name><extensions><gpxx:TrackExtension><gpxx:DisplayColor>Cyan</gpxx:DisplayColor></gpxx:TrackExtension></extensions><trkseg>
<trkpt lat="46.27513499" lon="7.06152200"><ele>1183.5202637904</ele><time>2006-07-27T16:16:46Z</time></trkpt>
<trkpt lat="46.27513600" lon="7.06179491"><ele>1194.5751951984</ele><time>2006-07-27T16:16:46Z</time></trkpt>
<trkpt lat="46.27503147" lon="7.06189491"><ele>1193.1333006984</ele><time>2006-07-27T16:16:46Z</time></trkpt>
<trkpt lat="46.27513549" lon="7.06188301"><ele>1197.4594727928</ele><time>2006-07-27T16:16:46Z</time></trkpt>
<trkpt lat="46.27513549" lon="7.06188301"><ele>1197.4594727928</ele><time>2006-07-27T16:16:46Z</time></trkpt>
<trkpt lat="46.27512518" lon="7.06186582"><ele>1166.6972654832</ele><time>2006-07-27T16:16:46Z</time></trkpt>
<trkpt lat="46.27457784" lon="7.06135805"><ele>1149.8742674808</ele><time>2006-07-27T16:16:46Z</time></trkpt>
<trkpt lat="46.27427107" lon="7.06212885"><ele>1132.5705565968</ele><time>2006-07-27T16:16:46Z</time></trkpt>
<trkpt lat="46.27449671" lon="7.06334582"><ele>1136.41577136</ele><time>2006-07-27T16:16:46Z</time></trkpt>
<trkpt lat="46.27622757" lon="7.06914048"><ele>1131.128417952</ele><time>2006-07-27T16:16:46Z</time></trkpt>
<trkpt lat="46.27949375" lon="7.07119622"><ele>1149.3935545992</ele><time>2006-07-27T16:16:46Z</time></trkpt>
<trkpt lat="46.28031802" lon="7.07170308"><ele>1147.9514159544</ele><time>2006-07-27T16:16:46Z</time></trkpt>
<trkpt lat="46.28181537" lon="7.07263540"><ele>1166.6972654832</ele><time>2006-07-27T16:16:46Z</time></trkpt>
<trkpt lat="46.28202944" lon="7.07533278"><ele>1181.1171873672</ele><time>2006-07-27T16:16:46Z</time></trkpt>
<trkpt lat="46.28283226" lon="7.07615378"><ele>1193.1333006984</ele><time>2006-07-27T16:16:46Z</time></trkpt>
<trkpt lat="46.28344112" lon="7.07636551"><ele>1202.746582056</ele><time>2006-07-27T16:16:46Z</time></trkpt>
<trkpt lat="46.28364371" lon="7.07705400"><ele>1214.2824707952</ele><time>2006-07-27T16:16:46Z</time></trkpt>
<trkpt lat="46.28459849" lon="7.07950629"><ele>1292.630126952</ele><time>2006-07-27T16:16:46Z</time></trkpt>
<trkpt lat="46.28531070" lon="7.08092459"><ele>1324.3535155752</ele><time>2006-07-27T16:16:46Z</time></trkpt>
<trkpt lat="46.28575905" lon="7.08204676"><ele>1348.3862305272</ele><time>2006-07-27T16:16:46Z</time></trkpt>
<trkpt lat="46.28624545" lon="7.08319659"><ele>1383.9550780584</ele><time>2006-07-27T16:16:46Z</time></trkpt>
<trkpt lat="46.28666799" lon="7.08430334"><ele>1413.7558593</ele><time>2006-07-27T16:16:46Z</time></trkpt>
<trkpt lat="46.28813147" lon="7.08794746"><ele>1416.1591795632</ele><time>2006-07-27T16:16:46Z</time></trkpt>
<trkpt lat="46.28908843" lon="7.09029724"><ele>1413.2753905632</ele><time>2006-07-27T16:16:46Z</time></trkpt>
<trkpt lat="46.28959713" lon="7.09144975"><ele>1468.0705566648</ele><time>2006-07-27T16:16:46Z</time></trkpt>
<trkpt lat="46.29059801" lon="7.09374312"><ele>1537.2854005056</ele><time>2006-07-27T16:16:46Z</time></trkpt>
<trkpt lat="46.29154231" lon="7.09603490"><ele>1584.8708496576</ele><time>2006-07-27T16:16:46Z</time></trkpt>
<trkpt lat="46.29203869" lon="7.09724441"><ele>1610.3454591096</ele><time>2006-07-27T16:16:46Z</time></trkpt>
<trkpt lat="46.29343713" lon="7.10073397"><ele>1667.0634764328</ele><time>2006-07-27T16:16:46Z</time></trkpt>
<trkpt lat="46.29488661" lon="7.10416476"><ele>1728.5878907472</ele><time>2006-07-27T16:16:46Z</time></trkpt>
<trkpt lat="46.29533990" lon="7.10530638"><ele>1727.626464984</ele><time>2006-07-27T16:16:46Z</time></trkpt>
<trkpt lat="46.29570519" lon="7.10419846"><ele>1725.7038572976</ele><time>2006-07-27T16:16:46Z</time></trkpt>
<trkpt lat="46.29532021" lon="7.10355682"><ele>1718.9746093896</ele><time>2006-07-27T16:16:46Z</time></trkpt>
<trkpt lat="46.29463046" lon="7.10387022"><ele>1710.3227537952</ele><time>2006-07-27T16:16:46Z</time></trkpt>
<trkpt lat="46.29398153" lon="7.10491360"><ele>1691.5769042664</ele><time>2006-07-27T16:16:46Z</time></trkpt>
<trkpt lat="46.29335381" lon="7.10589118"><ele>1682.9250489768</ele><time>2006-07-27T16:16:46Z</time></trkpt>
<trkpt lat="46.29235737" lon="7.10787057"><ele>1679.0798339088</ele><time>2006-07-27T16:16:46Z</time></trkpt>
<trkpt lat="46.29186644" lon="7.10886098"><ele>1676.6767577904</ele><time>2006-07-27T16:16:46Z</time></trkpt>
<trkpt lat="46.29131458" lon="7.10949465"><ele>1669.9472657376</ele><time>2006-07-27T16:16:46Z</time></trkpt>
<trkpt lat="46.29043565" lon="7.11211802"><ele>1638.704589996</ele><time>2006-07-27T16:16:46Z</time></trkpt>
<trkpt lat="46.29018327" lon="7.11330154"><ele>1628.13012702</ele><time>2006-07-27T16:16:46Z</time></trkpt>
<trkpt lat="46.28961691" lon="7.11429052"><ele>1606.9809569232</ele><time>2006-07-27T16:16:46Z</time></trkpt>
<trkpt lat="46.28907208" lon="7.11497817"><ele>1581.0256348944</ele><time>2006-07-27T16:16:46Z</time></trkpt>
<trkpt lat="46.28860538" lon="7.11519677"><ele>1563.2409666792</ele><time>2006-07-27T16:16:46Z</time></trkpt>
<trkpt lat="46.28885231" lon="7.11381133"><ele>1564.2023924424</ele><time>2006-07-27T16:16:46Z</time></trkpt>
<trkpt lat="46.28867336" lon="7.11242463"><ele>1558.4343261528</ele><time>2006-07-27T16:16:46Z</time></trkpt>
<trkpt lat="46.28821596" lon="7.11001122"><ele>1519.9816893168</ele><time>2006-07-27T16:16:46Z</time></trkpt>
<trkpt lat="46.28750836" lon="7.11080323"><ele>1512.2910156456</ele><time>2006-07-27T16:16:46Z</time></trkpt>
<trkpt lat="46.28722019" lon="7.11341922"><ele>1496.9099121432</ele><time>2006-07-27T16:16:46Z</time></trkpt>
<trkpt lat="46.28673705" lon="7.11453469"><ele>1481.5288086408</ele><time>2006-07-27T16:16:46Z</time></trkpt>
<trkpt lat="46.28728087" lon="7.11769818"><ele>1458.4572753072</ele><time>2006-07-27T16:16:46Z</time></trkpt>
<trkpt lat="46.28756301" lon="7.12045315"><ele>1462.3024903752</ele><time>2006-07-27T16:16:46Z</time></trkpt>
<trkpt lat="46.28819006" lon="7.12117357"><ele>1463.2639161384</ele><time>2006-07-27T16:16:46Z</time></trkpt>
<trkpt lat="46.28758413" lon="7.12214059"><ele>1455.5734863072</ele><time>2006-07-27T16:16:46Z</time></trkpt>
<trkpt lat="46.28744507" lon="7.12615779"><ele>1463.2639161384</ele><time>2006-07-27T16:16:46Z</time></trkpt>
<trkpt lat="46.28745563" lon="7.12740242"><ele>1468.0705566648</ele><time>2006-07-27T16:16:46Z</time></trkpt>
<trkpt lat="46.28746687" lon="7.12861829"><ele>1472.8771971912</ele><time>2006-07-27T16:16:46Z</time></trkpt>
<trkpt lat="46.28760181" lon="7.12988899"><ele>1476.2416990728</ele><time>2006-07-27T16:16:46Z</time></trkpt>
<trkpt lat="46.28901173" lon="7.13322340"><ele>1481.048339904</ele><time>2006-07-27T16:16:46Z</time></trkpt>
<trkpt lat="46.28915833" lon="7.13452511"><ele>1466.1477051384</ele><time>2006-07-27T16:16:46Z</time></trkpt>
<trkpt lat="46.28906010" lon="7.13581156"><ele>1456.053955044</ele><time>2006-07-27T16:16:46Z</time></trkpt>
<trkpt lat="46.28892716" lon="7.13705912"><ele>1458.9379881888</ele><time>2006-07-27T16:16:46Z</time></trkpt>
<trkpt lat="46.28838971" lon="7.13663734"><ele>1457.0153808072</ele><time>2006-07-27T16:16:46Z</time></trkpt>
<trkpt lat="46.28768337" lon="7.13564954"><ele>1451.7280273992</ele><time>2006-07-27T16:16:46Z</time></trkpt>
<trkpt lat="46.28633690" lon="7.13387551"><ele>1438.7504883048</ele><time>2006-07-27T16:16:46Z</time></trkpt>
<trkpt lat="46.28495120" lon="7.13207642"><ele>1423.8498535392</ele><time>2006-07-27T16:16:46Z</time></trkpt>
<trkpt lat="46.28510451" lon="7.13280707"><ele>1423.8498535392</ele><time>2006-07-27T16:16:46Z</time></trkpt>
<trkpt lat="46.28440546" lon="7.13204666"><ele>1424.8112793024</ele><time>2006-07-27T16:16:46Z</time></trkpt>
<trkpt lat="46.28326762" lon="7.12890353"><ele>1405.5849610368</ele><time>2006-07-27T16:16:46Z</time></trkpt>
<trkpt lat="46.28393197" lon="7.12479648"><ele>1352.712158172</ele><time>2006-07-27T16:16:46Z</time></trkpt>
<trkpt lat="46.28397781" lon="7.12351472"><ele>1355.1154784352</ele><time>2006-07-27T16:16:46Z</time></trkpt>
<trkpt lat="46.28348278" lon="7.12237990"><ele>1354.6347655536</ele><time>2006-07-27T16:16:46Z</time></trkpt>
<trkpt lat="46.28313728" lon="7.12116838"><ele>1350.3090820536</ele><time>2006-07-27T16:16:46Z</time></trkpt>
<trkpt lat="46.28303845" lon="7.11974882"><ele>1342.1379393408</ele><time>2006-07-27T16:16:46Z</time></trkpt>
<trkpt lat="46.28289663" lon="7.11836429"><ele>1332.524658288</ele><time>2006-07-27T16:16:46Z</time></trkpt>
<trkpt lat="46.28204302" lon="7.11568443"><ele>1309.9335936912</ele><time>2006-07-27T16:16:46Z</time></trkpt>
<trkpt lat="46.28052925" lon="7.11493962"><ele>1323.8725585488</ele><time>2006-07-27T16:16:46Z</time></trkpt>
<trkpt lat="46.27971922" lon="7.11259704"><ele>1344.541015764</ele><time>2006-07-27T16:16:46Z</time></trkpt>
<trkpt lat="46.27931429" lon="7.11145601"><ele>1353.1928710536</ele><time>2006-07-27T16:16:46Z</time></trkpt>
<trkpt lat="46.27863117" lon="7.10907815"><ele>1375.3032227688</ele><time>2006-07-27T16:16:46Z</time></trkpt>
<trkpt lat="46.27678145" lon="7.10517713"><ele>1412.7946776816</ele><time>2006-07-27T16:16:46Z</time></trkpt>
<trkpt lat="46.27618658" lon="7.10419158"><ele>1424.3305664208</ele><time>2006-07-27T16:16:46Z</time></trkpt>
<trkpt lat="46.27560664" lon="7.10034437"><ele>1446.4409178312</ele><time>2006-07-27T16:16:46Z</time></trkpt>
<trkpt lat="46.27489468" lon="7.09936537"><ele>1443.0761718048</ele><time>2006-07-27T16:16:46Z</time></trkpt>
<trkpt lat="46.27389765" lon="7.09713243"><ele>1431.5402830656</ele><time>2006-07-27T16:16:46Z</time></trkpt>
<trkpt lat="46.27396605" lon="7.09621788"><ele>1419.5239258944</ele><time>2006-07-27T16:16:46Z</time></trkpt>
<trkpt lat="46.27472109" lon="7.09601906"><ele>1403.6621095104</ele><time>2006-07-27T16:16:46Z</time></trkpt>
<trkpt lat="46.27956784" lon="7.10290832"><ele>1266.1936034472</ele><time>2006-07-27T16:16:46Z</time></trkpt>
<trkpt lat="46.27976105" lon="7.10424967"><ele>1276.2875976864</ele><time>2006-07-27T16:16:46Z</time></trkpt>
<trkpt lat="46.28055532" lon="7.11184175"><ele>1285.4199220176</ele><time>2006-07-27T16:16:46Z</time></trkpt>
<trkpt lat="46.28140834" lon="7.11466402"><ele>1295.9946288336</ele><time>2006-07-27T16:16:46Z</time></trkpt>
<trkpt lat="46.28191855" lon="7.11570689"><ele>1304.6462402832</ele><time>2006-07-27T16:16:46Z</time></trkpt>
<trkpt lat="46.28312420" lon="7.11372583"><ele>1296.4753417152</ele><time>2006-07-27T16:16:46Z</time></trkpt>
<trkpt lat="46.28309269" lon="7.11234349"><ele>1294.072021452</ele><time>2006-07-27T16:16:46Z</time></trkpt>
<trkpt lat="46.28255256" lon="7.10978860"><ele>1281.5747069496</ele><time>2006-07-27T16:16:46Z</time></trkpt>
<trkpt lat="46.28178075" lon="7.10736975"><ele>1280.6135253312</ele><time>2006-07-27T16:16:46Z</time></trkpt>
<trkpt lat="46.28208619" lon="7.10482199"><ele>1281.0942382128</ele><time>2006-07-27T16:16:46Z</time></trkpt>
<trkpt lat="46.28261056" lon="7.10229753"><ele>1283.9780272128</ele><time>2006-07-27T16:16:46Z</time></trkpt>
<trkpt lat="46.28267275" lon="7.09969025"><ele>1286.3813477808</ele><time>2006-07-27T16:16:46Z</time></trkpt>
<trkpt lat="46.28224561" lon="7.09558362"><ele>1274.36474616</ele><time>2006-07-27T16:16:46Z</time></trkpt>
<trkpt lat="46.28234276" lon="7.09420740"><ele>1269.5583494736</ele><time>2006-07-27T16:16:46Z</time></trkpt>
<trkpt lat="46.28209172" lon="7.08885706"><ele>1257.061035276</ele><time>2006-07-27T16:16:46Z</time></trkpt>
<trkpt lat="46.28225785" lon="7.08750933"><ele>1254.1772459712</ele><time>2006-07-27T16:16:46Z</time></trkpt>
<trkpt lat="46.28266118" lon="7.08632011"><ele>1253.6965330896</ele><time>2006-07-27T16:16:46Z</time></trkpt>
<trkpt lat="46.28309185" lon="7.08521261"><ele>1252.2543944448</ele><time>2006-07-27T16:16:46Z</time></trkpt>
<trkpt lat="46.28339393" lon="7.08411173"><ele>1250.332031208</ele><time>2006-07-27T16:16:46Z</time></trkpt>
<trkpt lat="46.28390414" lon="7.08316407"><ele>1250.8124999448</ele><time>2006-07-27T16:16:47Z</time></trkpt>
<trkpt lat="46.28366785" lon="7.08183764"><ele>1249.3706054448</ele><time>2006-07-27T16:16:47Z</time></trkpt>
<trkpt lat="46.28343333" lon="7.08055881"><ele>1243.1218262736</ele><time>2006-07-27T16:16:47Z</time></trkpt>
<trkpt lat="46.28346895" lon="7.07922164"><ele>1236.8732909424</ele><time>2006-07-27T16:16:47Z</time></trkpt>
<trkpt lat="46.28356459" lon="7.07786210"><ele>1232.5476074424</ele><time>2006-07-27T16:16:47Z</time></trkpt>
<trkpt lat="46.28354648" lon="7.07649434"><ele>1230.1442871792</ele><time>2006-07-27T16:16:47Z</time></trkpt>
</trkseg></trk></gpx>